This is the latest recevied weather packets stored in our database for station/object KC3UTO. If no packets are shown the sender has not sent any weather packets the latest 10 day(s).
| Time | Temp. | Humidity | Pressure | Rain* | Wind** | Luminosity | Snow |
|---|---|---|---|---|---|---|---|
| 1777811974 | 8.33° C | 49% | 1013.5 hPa | 0 mm | - | 403 W/m² | - |
| 1777811673 | 7.78° C | 52% | 1013.7 hPa | 0 mm | - | 373 W/m² | - |
| 1777811368 | 7.22° C | 54% | 1013.5 hPa | 0 mm | - | 373 W/m² | - |
| 1777811065 | 7.22° C | 54% | 1013.4 hPa | 0 mm | - | 83 W/m² | - |
| 1777810763 | 7.22° C | 53% | 1013.4 hPa | 0 mm | - | 121 W/m² | - |
| 1777810459 | 7.78° C | 53% | 1013.4 hPa | 0 mm | - | 274 W/m² | - |
| 1777810155 | 7.22° C | 54% | 1013.3 hPa | 0 mm | - | 292 W/m² | - |
| 1777809853 | 7.22° C | 55% | 1013.5 hPa | 0 mm | - | 227 W/m² | - |
| 1777809550 | 7.22° C | 54% | 1013.2 hPa | 0 mm | - | 152 W/m² | - |
| 1777809248 | 7.22° C | 55% | 1013.4 hPa | 0 mm | - | 243 W/m² | - |
| 1777808946 | 7.22° C | 56% | 1013.3 hPa | 0 mm | - | 141 W/m² | - |
| 1777808642 | 7.22° C | 56% | 1013.4 hPa | 0 mm | - | 108 W/m² | - |
| 1777808339 | 7.22° C | 55% | 1013.3 hPa | 0 mm | - | 81 W/m² | - |
| 1777808038 | 7.22° C | 55% | 1013.1 hPa | 0 mm | - | 91 W/m² | - |
| 1777807734 | 7.22° C | 56% | 1013.1 hPa | 0 mm | - | 81 W/m² | - |
| 1777807434 | 6.67° C | 55% | 1012.8 hPa | 0 mm | - | 62 W/m² | - |
| 1777807133 | 6.67° C | 56% | 1012.8 hPa | 0 mm | - | 63 W/m² | - |
| 1777806831 | 6.67° C | 56% | 1013 hPa | 0 mm | - | 50 W/m² | - |
| 1777806527 | 6.67° C | 56% | 1012.8 hPa | 0 mm | - | 46 W/m² | - |
| 1777806224 | 6.67° C | 55% | 1012.8 hPa | 0 mm | - | 42 W/m² | - |
| 1777805920 | 6.67° C | 56% | 1012.7 hPa | 0 mm | - | 39 W/m² | - |
| 1777805617 | 6.67° C | 55% | 1012.6 hPa | 0 mm | - | 30 W/m² | - |
| 1777805315 | 6.67° C | 55% | 1012.4 hPa | 0 mm | - | 24 W/m² | - |
| 1777805012 | 6.67° C | 55% | 1012.6 hPa | 0 mm | - | 20 W/m² | - |
| 1777804710 | 6.67° C | 55% | 1012.3 hPa | 0 mm | - | 17 W/m² | - |
* Rain latest hour (hover to see other rain measurements)
** Current wind speed in m/s (hover to see current wind gust speed)